This is the latest recevied weather packets stored in our database for station/object RW6A-13. If no packets are shown the sender has not sent any weather packets the latest 10 day(s).
| Time | Temp. | Humidity | Pressure | Rain* | Wind** | Luminosity | Snow |
|---|---|---|---|---|---|---|---|
| 1778073293 | 21.67° C | 49% | 1009.6 hPa | 0 mm | - | - | - |
| 1778072992 | 21.11° C | 48% | 1009.6 hPa | 0 mm | - | - | - |
| 1778072693 | 21.67° C | 47% | 1009.7 hPa | 0 mm | - | - | - |
| 1778072392 | 22.22° C | 48% | 1009.7 hPa | 0 mm | - | - | - |
| 1778072092 | 21.67° C | 47% | 1009.7 hPa | 0 mm | - | - | - |
| 1778071793 | 21.67° C | 49% | 1009.7 hPa | 0 mm | - | - | - |
| 1778071492 | 21.67° C | 49% | 1009.7 hPa | 0 mm | - | - | - |
| 1778071192 | 22.22° C | 49% | 1009.6 hPa | 0 mm | - | - | - |
| 1778070892 | 22.22° C | 48% | 1009.7 hPa | 0 mm | - | - | - |
| 1778070592 | 22.78° C | 48% | 1009.7 hPa | 0 mm | - | - | - |
| 1778070293 | 22.22° C | 49% | 1009.7 hPa | 0 mm | - | - | - |
| 1778069992 | 22.78° C | 49% | 1009.8 hPa | 0 mm | - | - | - |
| 1778069692 | 21.67° C | 49% | 1009.7 hPa | 0 mm | - | - | - |
| 1778069391 | 22.22° C | 49% | 1009.8 hPa | 0 mm | - | - | - |
| 1778069092 | 21.67° C | 50% | 1009.8 hPa | 0 mm | - | - | - |
| 1778068792 | 22.22° C | 48% | 1009.8 hPa | 0 mm | - | - | - |
| 1778068492 | 22.22° C | 47% | 1009.8 hPa | 0 mm | - | - | - |
| 1778068192 | 22.78° C | 46% | 1009.8 hPa | 0 mm | - | - | - |
| 1778067891 | 22.22° C | 47% | 1009.8 hPa | 0 mm | - | - | - |
| 1778067592 | 22.78° C | 45% | 1009.8 hPa | 0 mm | - | - | - |
| 1778067292 | 22.78° C | 46% | 1009.8 hPa | 0 mm | - | - | - |
| 1778066991 | 23.33° C | 44% | 1009.8 hPa | 0 mm | - | - | - |
| 1778066692 | 23.33° C | 47% | 1009.9 hPa | 0 mm | - | - | - |
| 1778066391 | 23.33° C | 46% | 1009.8 hPa | 0 mm | - | - | - |
| 1778066092 | 23.33° C | 44% | 1009.8 hPa | 0 mm | - | - | - |
* Rain latest hour (hover to see other rain measurements)
** Current wind speed in m/s (hover to see current wind gust speed)